User: anonymous
Location: Caltech
(34.1382°N, 118.1253°W)
Time: 09:41:14
(UTC-07:00)
Language:

CZ-4B DEB - Orbit

View from above orbital plane
View from above orbital plane
View from above satellite
View from above satellite

Ground track
Ground track

The orbit data is extracted from the following two-line orbital elements,

1 27433U 02024D   14244.58923512  .00000197  00000-0  13222-3 0  9076
2 27433 098.8339 209.1173 0015749 055.5047 072.9430 14.11599328633297
Epoch (UTC): 01 September 2014 14:08:29
Eccentricity: 0.0015749
inclination: 98.8339°
perigee height: 842 km
apogee height: 865 km
right ascension of ascending node: 209.1173°
argument of perigee: 55.5047°
revolutions per day: 14.11599328
mean anomaly at epoch: 72.9430°
orbit number at epoch: 63329

The dashed part of the orbit path shows where the satellite is in the earth's shadow,  

DLR